Time,TemperatureF,DewpointF,PressureIn,WindDirection,WindDirectionDegrees,WindSpeedMPH,WindSpeedGustMPH,Humidity,HourlyPrecipIn,Conditions,Clouds,dailyrainin,SoftwareType,DateUTC
2013-04-09 00:04:00,48.5,35.7,29.96,NNW,348,2.0,3.0,61,0.00,,,0.00,WeatherCatV1.02B3,2013-04-09 07:04:00,
2013-04-09 00:09:00,48.7,35.9,29.96,North,0,2.0,8.0,61,0.00,,,0.00,WeatherCatV1.02B3,2013-04-09 07:09:00,
2013-04-09 00:14:00,48.9,35.6,29.96,NNW,348,0.0,2.0,60,0.00,,,0.00,WeatherCatV1.02B3,2013-04-09 07:14:00,
2013-04-09 00:19:00,48.9,35.2,29.96,NNW,334,4.0,8.0,59,0.00,,,0.00,WeatherCatV1.02B3,2013-04-09 07:19:00,
2013-04-09 00:24:00,49.1,35.0,29.96,NNW,338,3.0,6.0,58,0.00,,,0.00,WeatherCatV1.02B3,2013-04-09 07:24:00,
2013-04-09 00:29:00,49.2,35.1,29.96,NNW,339,3.0,5.0,58,0.00,,,0.00,WeatherCatV1.02B3,2013-04-09 07:29:00,
2013-04-09 00:34:00,49.2,35.1,29.96,WSW,250,0.0,8.0,58,0.00,,,0.00,WeatherCatV1.02B3,2013-04-09 07:34:00,
2013-04-09 00:39:00,49.2,35.5,29.96,NNW,340,4.0,7.0,59,0.00,,,0.00,WeatherCatV1.02B3,2013-04-09 07:39:00,
2013-04-09 00:44:00,49.1,35.0,29.96,NNW,340,0.0,6.0,58,0.00,,,0.00,WeatherCatV1.02B3,2013-04-09 07:44:00,
2013-04-09 00:49:00,49.2,35.1,29.96,NNW,345,0.0,7.0,58,0.00,,,0.00,WeatherCatV1.02B3,2013-04-09 07:49:00,
2013-04-09 00:54:00,49.1,35.8,29.96,NW,325,6.0,10.0,60,0.00,,,0.00,WeatherCatV1.02B3,2013-04-09 07:54:00,
2013-04-09 00:59:00,48.8,36.4,29.96,North,356,8.0,9.0,62,0.00,,,0.00,WeatherCatV1.02B3,2013-04-09 07:59:00,
2013-04-09 01:04:00,48.6,36.6,29.96,NW,310,0.0,7.0,63,0.00,,,0.00,WeatherCatV1.02B3,2013-04-09 08:04:00,
2013-04-09 01:09:00,48.3,36.3,29.96,North,353,5.0,8.0,63,0.00,,,0.00,WeatherCatV1.02B3,2013-04-09 08:09:00,
2013-04-09 01:14:00,48.1,36.9,29.97,NW,325,1.0,8.0,65,0.00,,,0.00,WeatherCatV1.02B3,2013-04-09 08:14:00,
2013-04-09 01:19:00,47.9,37.1,29.97,NW,323,0.0,7.0,66,0.00,,,0.00,WeatherCatV1.02B3,2013-04-09 08:19:00,
2013-04-09 01:24:00,47.8,37.0,29.97,NNW,327,4.0,7.0,66,0.00,,,0.00,WeatherCatV1.02B3,2013-04-09 08:24:00,
2013-04-09 01:29:00,47.7,37.3,29.97,NNW,331,3.0,3.0,67,0.00,,,0.00,WeatherCatV1.02B3,2013-04-09 08:29:00,
2013-04-09 01:34:00,47.7,36.1,29.97,North,358,2.0,10.0,64,0.00,,,0.00,WeatherCatV1.02B3,2013-04-09 08:34:00,
2013-04-09 01:39:00,47.8,36.2,29.97,North,352,3.0,10.0,64,0.00,,,0.00,WeatherCatV1.02B3,2013-04-09 08:39:00,
2013-04-09 01:44:00,47.9,36.7,29.96,South,173,4.0,7.0,65,0.00,,,0.00,WeatherCatV1.02B3,2013-04-09 08:44:00,
2013-04-09 01:49:00,47.8,36.6,29.96,ESE,105,3.0,13.0,65,0.00,,,0.00,WeatherCatV1.02B3,2013-04-09 08:49:00,
2013-04-09 01:54:00,47.9,35.5,29.96,NW,323,6.0,11.0,62,0.00,,,0.00,WeatherCatV1.02B3,2013-04-09 08:54:00,
2013-04-09 01:59:00,48.2,35.0,29.96,NNW,345,4.0,8.0,60,0.00,,,0.00,WeatherCatV1.02B3,2013-04-09 08:59:00,
2013-04-09 02:04:00,48.4,34.7,29.96,NNW,341,2.0,9.0,59,0.00,,,0.00,WeatherCatV1.02B3,2013-04-09 09:04:00,
2013-04-09 02:09:00,48.3,34.6,29.96,NNW,341,2.0,6.0,59,0.00,,,0.00,WeatherCatV1.02B3,2013-04-09 09:09:00,
2013-04-09 02:14:00,48.3,35.1,29.96,North,357,1.0,4.0,60,0.00,,,0.00,WeatherCatV1.02B3,2013-04-09 09:14:00,
2013-04-09 02:19:00,48.3,35.1,29.96,NNW,347,7.0,12.0,60,0.00,,,0.00,WeatherCatV1.02B3,2013-04-09 09:19:00,
2013-04-09 02:24:00,48.2,35.4,29.96,North,351,1.0,5.0,61,0.00,,,0.00,WeatherCatV1.02B3,2013-04-09 09:24:00,
2013-04-09 02:30:00,48.0,35.2,29.95,NNW,337,5.0,9.0,61,0.00,,,0.00,WeatherCatV1.02B3,2013-04-09 09:30:00,
2013-04-09 02:35:00,47.9,35.5,29.95,NNW,345,3.0,7.0,62,0.00,,,0.00,WeatherCatV1.02B3,2013-04-09 09:35:00,
2013-04-09 02:40:00,47.9,35.5,29.95,NNW,331,2.0,12.0,62,0.00,,,0.00,WeatherCatV1.02B3,2013-04-09 09:40:00,
2013-04-09 02:45:00,47.8,35.8,29.95,North,5,6.0,8.0,63,0.00,,,0.00,WeatherCatV1.02B3,2013-04-09 09:45:00,
2013-04-09 02:50:00,47.6,36.0,29.95,NNW,333,4.0,7.0,64,0.00,,,0.00,WeatherCatV1.02B3,2013-04-09 09:50:00,
2013-04-09 02:55:00,47.5,35.9,29.95,NNW,335,6.0,6.0,64,0.00,,,0.00,WeatherCatV1.02B3,2013-04-09 09:55:00,
2013-04-09 03:00:00,47.5,35.5,29.95,NNW,337,2.0,8.0,63,0.00,,,0.00,WeatherCatV1.02B3,2013-04-09 10:00:00,
2013-04-09 03:05:00,47.4,35.4,29.95,NNW,340,3.0,8.0,63,0.00,,,0.00,WeatherCatV1.02B3,2013-04-09 10:05:00,
2013-04-09 03:10:00,47.3,35.3,29.95,NNW,331,1.0,7.0,63,0.00,,,0.00,WeatherCatV1.02B3,2013-04-09 10:10:00,
2013-04-09 03:15:00,47.2,35.3,29.95,NNE,22,0.0,4.0,63,0.00,,,0.00,WeatherCatV1.02B3,2013-04-09 10:15:00,
2013-04-09 03:20:00,47.2,35.3,29.95,North,351,0.0,7.0,63,0.00,,,0.00,WeatherCatV1.02B3,2013-04-09 10:20:00,
2013-04-09 03:25:00,47.1,35.2,29.95,North,350,0.0,2.0,63,0.00,,,0.00,WeatherCatV1.02B3,2013-04-09 10:25:00,
2013-04-09 03:30:00,47.0,35.5,29.95,SE,142,0.0,1.0,64,0.00,,,0.00,WeatherCatV1.02B3,2013-04-09 10:30:00,
2013-04-09 03:35:00,46.9,34.6,29.95,NW,318,1.0,6.0,62,0.00,,,0.00,WeatherCatV1.02B3,2013-04-09 10:35:00,
2013-04-09 03:40:00,47.1,34.8,29.95,NNE,26,1.0,3.0,62,0.00,,,0.00,WeatherCatV1.02B3,2013-04-09 10:40:00,
2013-04-09 03:45:00,47.0,34.7,29.95,NNW,331,0.0,3.0,62,0.00,,,0.00,WeatherCatV1.02B3,2013-04-09 10:45:00,
2013-04-09 03:50:00,46.9,34.6,29.95,NW,323,5.0,6.0,62,0.00,,,0.00,WeatherCatV1.02B3,2013-04-09 10:50:00,
2013-04-09 03:55:00,46.9,34.6,29.95,NNW,331,2.0,3.0,62,0.00,,,0.00,WeatherCatV1.02B3,2013-04-09 10:55:00,
2013-04-09 04:00:00,46.8,34.9,29.95,NNW,337,0.0,7.0,63,0.00,,,0.00,WeatherCatV1.02B3,2013-04-09 11:00:00,
2013-04-09 04:05:00,46.7,34.4,29.95,NNW,330,5.0,6.0,62,0.00,,,0.00,WeatherCatV1.02B3,2013-04-09 11:05:00,
2013-04-09 04:10:00,46.7,34.4,29.95,NNW,335,3.0,4.0,62,0.00,,,0.00,WeatherCatV1.02B3,2013-04-09 11:10:00,
2013-04-09 04:15:00,46.7,34.8,29.95,NNE,27,0.0,6.0,63,0.00,,,0.00,WeatherCatV1.02B3,2013-04-09 11:15:00,
2013-04-09 04:20:00,46.6,34.3,29.95,NNW,329,1.0,3.0,62,0.00,,,0.00,WeatherCatV1.02B3,2013-04-09 11:20:00,
2013-04-09 04:25:00,46.6,33.9,29.95,NNW,341,0.0,9.0,61,0.00,,,0.00,WeatherCatV1.02B3,2013-04-09 11:25:00,
2013-04-09 04:30:00,46.7,34.0,29.95,NW,314,3.0,9.0,61,0.00,,,0.00,WeatherCatV1.02B3,2013-04-09 11:30:00,
2013-04-09 04:35:00,46.8,34.1,29.95,North,10,3.0,6.0,61,0.00,,,0.00,WeatherCatV1.02B3,2013-04-09 11:35:00,
2013-04-09 04:40:00,46.8,33.2,29.95,NNW,347,2.0,7.0,59,0.00,,,0.00,WeatherCatV1.02B3,2013-04-09 11:40:00,
2013-04-09 04:45:00,46.9,33.3,29.94,NW,323,4.0,7.0,59,0.00,,,0.00,WeatherCatV1.02B3,2013-04-09 11:45:00,
2013-04-09 04:50:00,47.0,32.6,29.94,NNW,344,2.0,10.0,57,0.00,,,0.00,WeatherCatV1.02B3,2013-04-09 11:50:00,
2013-04-09 04:55:00,47.0,33.0,29.94,NNE,29,1.0,5.0,58,0.00,,,0.00,WeatherCatV1.02B3,2013-04-09 11:55:00,
2013-04-09 05:00:00,47.0,33.0,29.95,NE,47,2.0,6.0,58,0.00,,,0.00,WeatherCatV1.02B3,2013-04-09 12:00:00,
2013-04-09 05:05:00,46.9,32.9,29.95,North,358,1.0,4.0,58,0.00,,,0.00,WeatherCatV1.02B3,2013-04-09 12:05:00,
2013-04-09 05:10:00,46.8,33.2,29.95,NNW,345,3.0,5.0,59,0.00,,,0.00,WeatherCatV1.02B3,2013-04-09 12:10:00,
2013-04-09 05:15:00,46.8,32.8,29.95,NNW,333,2.0,2.0,58,0.00,,,0.00,WeatherCatV1.02B3,2013-04-09 12:15:00,
2013-04-09 05:20:00,46.7,32.3,29.95,SE,124,1.0,7.0,57,0.00,,,0.00,WeatherCatV1.02B3,2013-04-09 12:20:00,
2013-04-09 05:25:00,46.7,32.7,29.95,NNW,339,4.0,4.0,58,0.00,,,0.00,WeatherCatV1.02B3,2013-04-09 12:25:00,
2013-04-09 05:30:00,46.8,32.4,29.95,SE,137,4.0,8.0,57,0.00,,,0.00,WeatherCatV1.02B3,2013-04-09 12:30:00,
2013-04-09 05:35:00,46.9,32.0,29.95,North,11,1.0,9.0,56,0.00,,,0.00,WeatherCatV1.02B3,2013-04-09 12:35:00,
2013-04-09 05:40:00,46.9,32.5,29.95,South,175,3.0,12.0,57,0.00,,,0.00,WeatherCatV1.02B3,2013-04-09 12:40:00,
2013-04-09 05:45:00,47.0,31.7,29.95,NNW,333,4.0,7.0,55,0.00,,,0.00,WeatherCatV1.02B3,2013-04-09 12:45:00,
2013-04-09 05:50:00,47.3,31.5,29.95,NNW,332,0.0,3.0,54,0.00,,,0.00,WeatherCatV1.02B3,2013-04-09 12:50:00,
2013-04-09 05:55:00,47.3,31.5,29.95,North,0,0.0,3.0,54,0.00,,,0.00,WeatherCatV1.02B3,2013-04-09 12:55:00,
2013-04-09 06:00:00,47.3,31.0,29.95,North,8,4.0,12.0,53,0.00,,,0.00,WeatherCatV1.02B3,2013-04-09 13:00:00,
2013-04-09 06:05:00,47.3,31.5,29.95,WNW,296,0.0,7.0,54,0.00,,,0.00,WeatherCatV1.02B3,2013-04-09 13:05:00,
2013-04-09 06:10:00,47.4,31.1,29.95,NNW,331,6.0,7.0,53,0.00,,,0.00,WeatherCatV1.02B3,2013-04-09 13:10:00,
2013-04-09 06:15:00,47.4,31.1,29.95,North,0,4.0,14.0,53,0.00,,,0.00,WeatherCatV1.02B3,2013-04-09 13:15:00,
2013-04-09 06:20:00,47.4,31.6,29.95,SSE,161,1.0,4.0,54,0.00,,,0.00,WeatherCatV1.02B3,2013-04-09 13:20:00,
2013-04-09 06:25:00,47.2,31.4,29.95,NNW,337,4.0,8.0,54,0.00,,,0.00,WeatherCatV1.02B3,2013-04-09 13:25:00,
2013-04-09 06:30:00,47.2,31.4,29.96,NW,304,3.0,9.0,54,0.00,,,0.00,WeatherCatV1.02B3,2013-04-09 13:30:00,
2013-04-09 06:35:00,47.3,31.5,29.96,WNW,299,2.0,7.0,54,0.00,,,0.00,WeatherCatV1.02B3,2013-04-09 13:35:00,
2013-04-09 06:40:00,47.2,31.4,29.96,NNW,337,1.0,4.0,54,0.00,,,0.00,WeatherCatV1.02B3,2013-04-09 13:40:00,
2013-04-09 06:45:00,47.0,31.2,29.97,NW,325,9.0,9.0,54,0.00,,,0.00,WeatherCatV1.02B3,2013-04-09 13:45:00,
2013-04-09 06:50:00,47.0,31.2,29.97,North,9,6.0,11.0,54,0.00,,,0.00,WeatherCatV1.02B3,2013-04-09 13:50:00,
2013-04-09 06:55:00,47.1,31.3,29.97,NNW,343,1.0,8.0,54,0.00,,,0.00,WeatherCatV1.02B3,2013-04-09 13:55:00,
2013-04-09 07:00:00,47.1,31.3,29.97,NNW,337,2.0,9.0,54,0.00,,,0.00,WeatherCatV1.02B3,2013-04-09 14:00:00,
2013-04-09 07:05:00,47.0,31.2,29.97,North,4,3.0,10.0,54,0.00,,,0.00,WeatherCatV1.02B3,2013-04-09 14:05:00,
2013-04-09 07:10:00,47.0,31.2,29.97,NNW,344,0.0,4.0,54,0.00,,,0.00,WeatherCatV1.02B3,2013-04-09 14:10:00,
2013-04-09 07:15:00,47.0,31.7,29.97,NW,324,0.0,3.0,55,0.00,,,0.00,WeatherCatV1.02B3,2013-04-09 14:15:00,
2013-04-09 07:20:00,47.1,31.8,29.97,NNW,332,4.0,7.0,55,0.00,,,0.00,WeatherCatV1.02B3,2013-04-09 14:20:00,
2013-04-09 07:25:00,47.2,31.4,29.97,NE,34,3.0,5.0,54,0.00,,,0.00,WeatherCatV1.02B3,2013-04-09 14:25:00,
2013-04-09 07:30:00,47.4,31.1,29.98,NNW,337,4.0,10.0,53,0.00,,,0.00,WeatherCatV1.02B3,2013-04-09 14:30:00,
2013-04-09 07:35:00,47.5,31.7,29.98,NW,318,8.0,9.0,54,0.00,,,0.00,WeatherCatV1.02B3,2013-04-09 14:35:00,
2013-04-09 07:40:00,47.7,31.4,29.98,NNE,17,6.0,11.0,53,0.00,,,0.00,WeatherCatV1.02B3,2013-04-09 14:40:00,
2013-04-09 07:45:00,47.8,31.0,29.98,NNW,335,10.0,15.0,52,0.00,,,0.00,WeatherCatV1.02B3,2013-04-09 14:45:00,
2013-04-09 07:50:00,48.0,31.2,29.98,NNW,343,5.0,8.0,52,0.00,,,0.00,WeatherCatV1.02B3,2013-04-09 14:50:00,
2013-04-09 07:55:00,48.2,30.9,29.98,NNW,333,3.0,4.0,51,0.00,,,0.00,WeatherCatV1.02B3,2013-04-09 14:55:00,
2013-04-09 08:00:00,48.4,31.1,29.98,NE,39,0.0,9.0,51,0.00,,,0.00,WeatherCatV1.02B3,2013-04-09 15:00:00,
2013-04-09 08:05:00,48.6,30.8,29.98,NNW,348,3.0,6.0,50,0.00,,,0.00,WeatherCatV1.02B3,2013-04-09 15:05:00,
2013-04-09 08:10:00,48.8,31.0,29.98,North,352,1.0,4.0,50,0.00,,,0.00,WeatherCatV1.02B3,2013-04-09 15:10:00,
2013-04-09 08:15:00,48.9,30.1,29.98,NNW,330,7.0,7.0,48,0.00,,,0.00,WeatherCatV1.02B3,2013-04-09 15:15:00,
2013-04-09 08:20:00,49.0,30.7,29.98,NW,319,4.0,7.0,49,0.00,,,0.00,WeatherCatV1.02B3,2013-04-09 15:20:00,
2013-04-09 08:25:00,49.2,29.8,29.98,WNW,289,1.0,14.0,47,0.00,,,0.00,WeatherCatV1.02B3,2013-04-09 15:25:00,
2013-04-09 08:30:00,49.5,30.6,29.98,SSE,158,3.0,12.0,48,0.00,,,0.00,WeatherCatV1.02B3,2013-04-09 15:30:00,
2013-04-09 08:35:00,49.6,29.7,29.98,NNW,346,14.0,14.0,46,0.00,,,0.00,WeatherCatV1.02B3,2013-04-09 15:35:00,
2013-04-09 08:40:00,49.8,30.9,29.98,NNW,341,1.0,8.0,48,0.00,,,0.00,WeatherCatV1.02B3,2013-04-09 15:40:00,
2013-04-09 08:45:00,49.9,30.5,29.98,NNW,340,5.0,6.0,47,0.00,,,0.00,WeatherCatV1.02B3,2013-04-09 15:45:00,
2013-04-09 08:50:00,50.1,30.7,29.98,NNW,343,2.0,12.0,47,0.00,,,0.00,WeatherCatV1.02B3,2013-04-09 15:50:00,
2013-04-09 08:55:00,50.1,30.1,29.98,NNW,334,5.0,8.0,46,0.00,,,0.00,WeatherCatV1.02B3,2013-04-09 15:55:00,
2013-04-09 09:00:00,50.2,30.8,29.98,North,352,3.0,10.0,47,0.00,,,0.00,WeatherCatV1.02B3,2013-04-09 16:00:00,
2013-04-09 09:05:00,50.4,30.4,29.98,North,350,8.0,13.0,46,0.00,,,0.00,WeatherCatV1.02B3,2013-04-09 16:05:00,
2013-04-09 09:10:00,50.5,31.0,29.98,South,181,5.0,14.0,47,0.00,,,0.00,WeatherCatV1.02B3,2013-04-09 16:10:00,
2013-04-09 09:15:00,50.6,30.6,29.99,ENE,77,4.0,9.0,46,0.00,,,0.00,WeatherCatV1.02B3,2013-04-09 16:15:00,
2013-04-09 09:20:00,50.6,31.6,29.99,NNW,343,1.0,7.0,48,0.00,,,0.00,WeatherCatV1.02B3,2013-04-09 16:20:00,
2013-04-09 09:25:00,50.5,31.5,29.99,NNW,346,16.0,16.0,48,0.00,,,0.00,WeatherCatV1.02B3,2013-04-09 16:25:00,
2013-04-09 09:30:00,50.5,32.1,29.99,NW,304,7.0,9.0,49,0.00,,,0.00,WeatherCatV1.02B3,2013-04-09 16:30:00,
2013-04-09 09:35:00,50.9,32.4,29.99,NW,318,0.0,5.0,49,0.00,,,0.00,WeatherCatV1.02B3,2013-04-09 16:35:00,
2013-04-09 09:40:00,51.2,33.2,29.99,North,352,1.0,5.0,50,0.00,,,0.00,WeatherCatV1.02B3,2013-04-09 16:40:00,
2013-04-09 09:45:00,51.3,32.8,30.00,NNW,330,4.0,8.0,49,0.00,,,0.00,WeatherCatV1.02B3,2013-04-09 16:45:00,
2013-04-09 09:50:00,51.4,32.9,30.00,East,94,1.0,7.0,49,0.00,,,0.00,WeatherCatV1.02B3,2013-04-09 16:50:00,
2013-04-09 09:55:00,51.3,32.8,30.00,NNW,345,6.0,8.0,49,0.00,,,0.00,WeatherCatV1.02B3,2013-04-09 16:55:00,
2013-04-09 10:00:00,51.3,32.3,30.00,North,354,6.0,10.0,48,0.00,,,0.00,WeatherCatV1.02B3,2013-04-09 17:00:00,
2013-04-09 10:05:00,51.5,31.9,30.00,North,357,7.0,15.0,47,0.00,,,0.00,WeatherCatV1.02B3,2013-04-09 17:05:00,
2013-04-09 10:10:00,51.7,32.6,30.00,NNW,334,5.0,6.0,48,0.00,,,0.00,WeatherCatV1.02B3,2013-04-09 17:10:00,
2013-04-09 10:15:00,52.1,31.4,30.00,NNW,340,5.0,15.0,45,0.00,,,0.00,WeatherCatV1.02B3,2013-04-09 17:15:00,
2013-04-09 10:20:00,52.3,31.6,30.00,NNW,337,9.0,16.0,45,0.00,,,0.00,WeatherCatV1.02B3,2013-04-09 17:20:00,
2013-04-09 10:25:00,52.5,31.2,30.00,NNW,329,5.0,15.0,44,0.00,,,0.00,WeatherCatV1.02B3,2013-04-09 17:25:00,
2013-04-09 10:30:00,52.7,32.0,30.00,NNW,343,7.0,10.0,45,0.00,,,0.00,WeatherCatV1.02B3,2013-04-09 17:30:00,
2013-04-09 10:35:00,53.1,32.9,30.00,NW,316,9.0,14.0,46,0.00,,,0.00,WeatherCatV1.02B3,2013-04-09 17:35:00,
2013-04-09 10:40:00,53.2,31.3,30.00,North,358,7.0,18.0,43,0.00,,,0.00,WeatherCatV1.02B3,2013-04-09 17:40:00,
2013-04-09 10:45:00,53.4,33.1,30.00,NNW,330,6.0,15.0,46,0.00,,,0.00,WeatherCatV1.02B3,2013-04-09 17:45:00,
2013-04-09 10:50:00,53.9,31.9,30.00,North,351,7.0,20.0,43,0.00,,,0.00,WeatherCatV1.02B3,2013-04-09 17:50:00,
2013-04-09 10:55:00,53.9,32.5,30.00,NNW,342,10.0,11.0,44,0.00,,,0.00,WeatherCatV1.02B3,2013-04-09 17:55:00,
2013-04-09 11:00:00,54.2,32.8,30.01,NNW,337,3.0,11.0,44,0.00,,,0.00,WeatherCatV1.02B3,2013-04-09 18:00:00,
2013-04-09 11:05:00,54.6,34.2,30.01,NNW,344,3.0,5.0,46,0.00,,,0.00,WeatherCatV1.02B3,2013-04-09 18:05:00,
2013-04-09 11:10:00,55.2,31.9,30.01,NNW,344,6.0,8.0,41,0.00,,,0.00,WeatherCatV1.02B3,2013-04-09 18:10:00,
2013-04-09 11:15:00,55.5,32.8,30.01,North,355,8.0,10.0,42,0.00,,,0.00,WeatherCatV1.02B3,2013-04-09 18:15:00,
2013-04-09 11:20:00,55.7,31.1,30.01,NW,316,10.0,20.0,39,0.00,,,0.00,WeatherCatV1.02B3,2013-04-09 18:20:00,
2013-04-09 11:25:00,55.7,33.0,30.01,NNW,335,5.0,7.0,42,0.00,,,0.00,WeatherCatV1.02B3,2013-04-09 18:25:00,
2013-04-09 11:30:00,56.1,32.7,30.01,NNW,345,3.0,8.0,41,0.00,,,0.00,WeatherCatV1.02B3,2013-04-09 18:30:00,
2013-04-09 11:35:00,56.6,32.6,30.01,NNW,344,7.0,14.0,40,0.00,,,0.00,WeatherCatV1.02B3,2013-04-09 18:35:00,
2013-04-09 11:40:00,56.3,31.7,30.01,NE,37,8.0,10.0,39,0.00,,,0.00,WeatherCatV1.02B3,2013-04-09 18:40:00,
2013-04-09 11:45:00,56.6,31.9,30.00,NNW,347,5.0,11.0,39,0.00,,,0.00,WeatherCatV1.02B3,2013-04-09 18:45:00,
2013-04-09 11:50:00,56.7,32.7,30.00,NW,324,2.0,8.0,40,0.00,,,0.00,WeatherCatV1.02B3,2013-04-09 18:50:00,
2013-04-09 11:55:00,57.1,33.0,30.00,NNE,25,0.0,10.0,40,0.00,,,0.00,WeatherCatV1.02B3,2013-04-09 18:55:00,
2013-04-09 12:00:00,57.3,31.9,30.01,West,281,1.0,13.0,38,0.00,,,0.00,WeatherCatV1.02B3,2013-04-09 19:00:00,
2013-04-09 12:05:00,57.4,33.9,30.01,NNW,347,5.0,8.0,41,0.00,,,0.00,WeatherCatV1.02B3,2013-04-09 19:05:00,
2013-04-09 12:10:00,57.8,32.4,30.01,NNW,331,4.0,12.0,38,0.00,,,0.00,WeatherCatV1.02B3,2013-04-09 19:10:00,
2013-04-09 12:15:00,57.5,33.4,30.01,NNW,333,8.0,9.0,40,0.00,,,0.00,WeatherCatV1.02B3,2013-04-09 19:15:00,
2013-04-09 12:20:00,57.3,32.6,30.01,SSE,167,3.0,6.0,39,0.00,,,0.00,WeatherCatV1.02B3,2013-04-09 19:20:00,
2013-04-09 12:25:00,57.9,31.8,30.01,North,3,6.0,19.0,37,0.00,,,0.00,WeatherCatV1.02B3,2013-04-09 19:25:00,
2013-04-09 12:31:00,57.9,31.8,30.01,North,353,6.0,16.0,37,0.00,,,0.00,WeatherCatV1.02B3,2013-04-09 19:31:00,
2013-04-09 12:36:00,58.2,33.4,30.01,NNW,337,2.0,7.0,39,0.00,,,0.00,WeatherCatV1.02B3,2013-04-09 19:36:00,
2013-04-09 12:41:00,58.6,33.1,30.01,NNW,337,4.0,9.0,38,0.00,,,0.00,WeatherCatV1.02B3,2013-04-09 19:41:00,
2013-04-09 12:46:00,58.5,32.3,30.00,NNW,333,7.0,13.0,37,0.00,,,0.00,WeatherCatV1.02B3,2013-04-09 19:46:00,
2013-04-09 12:51:00,58.8,33.9,30.00,NNW,330,5.0,5.0,39,0.00,,,0.00,WeatherCatV1.02B3,2013-04-09 19:51:00,
2013-04-09 12:56:00,59.0,33.4,30.00,NNW,331,0.0,8.0,38,0.00,,,0.00,WeatherCatV1.02B3,2013-04-09 19:56:00,
2013-04-09 13:01:00,59.5,33.9,30.00,NNE,15,2.0,16.0,38,0.00,,,0.00,WeatherCatV1.02B3,2013-04-09 20:01:00,
2013-04-09 13:05:00,59.4,33.1,30.00,NNW,341,6.0,8.0,37,0.00,,,0.00,WeatherCatV1.02B3,2013-04-09 20:05:00,
2013-04-09 13:10:00,59.3,33.7,30.00,North,350,3.0,7.0,38,0.00,,,0.00,WeatherCatV1.02B3,2013-04-09 20:10:00,
2013-04-09 13:15:00,59.6,33.3,30.00,NNW,347,8.0,8.0,37,0.00,,,0.00,WeatherCatV1.02B3,2013-04-09 20:15:00,
2013-04-09 13:21:00,59.6,32.6,30.00,NNW,330,1.0,5.0,36,0.00,,,0.00,WeatherCatV1.02B3,2013-04-09 20:21:00,
2013-04-09 13:26:00,59.9,32.9,30.00,ESE,117,0.0,14.0,36,0.00,,,0.00,WeatherCatV1.02B3,2013-04-09 20:26:00,
2013-04-09 13:31:00,60.3,31.1,30.00,North,3,7.0,7.0,33,0.00,,,0.00,WeatherCatV1.02B3,2013-04-09 20:31:00,
2013-04-09 13:36:00,60.5,32.0,30.00,North,356,1.0,6.0,34,0.00,,,0.00,WeatherCatV1.02B3,2013-04-09 20:36:00,
2013-04-09 13:41:00,61.0,33.2,30.00,NW,309,2.0,12.0,35,0.00,,,0.00,WeatherCatV1.02B3,2013-04-09 20:41:00,
2013-04-09 13:46:00,61.4,32.8,30.00,SSE,160,9.0,15.0,34,0.00,,,0.00,WeatherCatV1.02B3,2013-04-09 20:46:00,
2013-04-09 13:51:00,61.1,32.5,30.00,NNE,25,0.0,11.0,34,0.00,,,0.00,WeatherCatV1.02B3,2013-04-09 20:51:00,
2013-04-09 13:56:00,61.0,32.4,30.00,NNW,339,3.0,10.0,34,0.00,,,0.00,WeatherCatV1.02B3,2013-04-09 20:56:00,
2013-04-09 14:01:00,61.0,32.4,30.00,North,4,3.0,8.0,34,0.00,,,0.00,WeatherCatV1.02B3,2013-04-09 21:01:00,
2013-04-09 14:06:00,61.1,33.9,30.00,NNW,342,4.0,5.0,36,0.00,,,0.00,WeatherCatV1.02B3,2013-04-09 21:06:00,
2013-04-09 14:11:00,61.6,33.0,30.00,NNW,343,8.0,9.0,34,0.00,,,0.00,WeatherCatV1.02B3,2013-04-09 21:11:00,
2013-04-09 14:16:00,61.7,33.8,29.99,NNW,339,5.0,6.0,35,0.00,,,0.00,WeatherCatV1.02B3,2013-04-09 21:16:00,
2013-04-09 14:21:00,61.7,31.5,29.99,NNW,348,5.0,15.0,32,0.00,,,0.00,WeatherCatV1.02B3,2013-04-09 21:21:00,
2013-04-09 14:26:00,61.3,30.4,29.99,North,351,3.0,10.0,31,0.00,,,0.00,WeatherCatV1.02B3,2013-04-09 21:26:00,
2013-04-09 14:31:00,61.5,30.6,29.99,NNW,333,8.0,8.0,31,0.00,,,0.00,WeatherCatV1.02B3,2013-04-09 21:31:00,
2013-04-09 14:36:00,61.6,31.5,29.99,NNW,343,4.0,4.0,32,0.00,,,0.00,WeatherCatV1.02B3,2013-04-09 21:36:00,
2013-04-09 14:41:00,62.0,31.8,29.99,NNW,347,6.0,6.0,32,0.00,,,0.00,WeatherCatV1.02B3,2013-04-09 21:41:00,
2013-04-09 14:46:00,61.9,31.7,29.99,NNW,339,2.0,7.0,32,0.00,,,0.00,WeatherCatV1.02B3,2013-04-09 21:46:00,
2013-04-09 14:51:00,62.1,31.1,29.99,North,352,1.0,13.0,31,0.00,,,0.00,WeatherCatV1.02B3,2013-04-09 21:51:00,
2013-04-09 14:56:00,62.3,30.5,29.99,NNW,335,3.0,8.0,30,0.00,,,0.00,WeatherCatV1.02B3,2013-04-09 21:56:00,
2013-04-09 15:01:00,62.4,31.4,30.00,NNW,343,5.0,8.0,31,0.00,,,0.00,WeatherCatV1.02B3,2013-04-09 22:01:00,
2013-04-09 15:06:00,62.1,31.1,30.00,NNW,340,2.0,7.0,31,0.00,,,0.00,WeatherCatV1.02B3,2013-04-09 22:06:00,
2013-04-09 15:11:00,62.1,30.3,30.00,NNW,344,5.0,8.0,30,0.00,,,0.00,WeatherCatV1.02B3,2013-04-09 22:11:00,
2013-04-09 15:16:00,62.1,30.3,30.00,NNW,341,4.0,8.0,30,0.00,,,0.00,WeatherCatV1.02B3,2013-04-09 22:16:00,
2013-04-09 15:21:00,62.3,29.6,30.00,North,357,5.0,17.0,29,0.00,,,0.00,WeatherCatV1.02B3,2013-04-09 22:21:00,
2013-04-09 15:26:00,62.2,30.4,30.00,North,11,1.0,10.0,30,0.00,,,0.00,WeatherCatV1.02B3,2013-04-09 22:26:00,
2013-04-09 15:31:00,62.5,30.6,29.99,ESE,117,1.0,5.0,30,0.00,,,0.00,WeatherCatV1.02B3,2013-04-09 22:31:00,
2013-04-09 15:36:00,62.7,30.0,29.99,North,352,4.0,7.0,29,0.00,,,0.00,WeatherCatV1.02B3,2013-04-09 22:36:00,
2013-04-09 15:41:00,62.6,29.0,29.99,NNW,333,6.0,11.0,28,0.00,,,0.00,WeatherCatV1.02B3,2013-04-09 22:41:00,
2013-04-09 15:46:00,62.5,29.8,29.99,SSE,158,5.0,11.0,29,0.00,,,0.00,WeatherCatV1.02B3,2013-04-09 22:46:00,
2013-04-09 15:51:00,62.5,30.6,29.99,North,0,5.0,7.0,30,0.00,,,0.00,WeatherCatV1.02B3,2013-04-09 22:51:00,
2013-04-09 15:56:00,62.6,29.9,29.99,NNW,334,5.0,15.0,29,0.00,,,0.00,WeatherCatV1.02B3,2013-04-09 22:56:00,
2013-04-09 16:01:00,62.6,30.7,29.99,North,350,4.0,7.0,30,0.00,,,0.00,WeatherCatV1.02B3,2013-04-09 23:01:00,
2013-04-09 16:06:00,62.6,30.7,29.99,NW,306,6.0,13.0,30,0.00,,,0.00,WeatherCatV1.02B3,2013-04-09 23:06:00,
2013-04-09 16:11:00,62.5,29.8,29.99,NW,326,5.0,13.0,29,0.00,,,0.00,WeatherCatV1.02B3,2013-04-09 23:11:00,
2013-04-09 16:16:00,62.5,31.5,29.99,NNW,345,5.0,11.0,31,0.00,,,0.00,WeatherCatV1.02B3,2013-04-09 23:16:00,
2013-04-09 16:21:00,62.6,29.9,29.99,WNW,302,6.0,13.0,29,0.00,,,0.00,WeatherCatV1.02B3,2013-04-09 23:21:00,
2013-04-09 16:26:00,62.6,29.9,29.99,WNW,293,11.0,16.0,29,0.00,,,0.00,WeatherCatV1.02B3,2013-04-09 23:26:00,
2013-04-09 16:31:00,62.7,31.6,29.99,NNW,343,2.0,6.0,31,0.00,,,0.00,WeatherCatV1.02B3,2013-04-09 23:31:00,
2013-04-09 16:36:00,62.8,30.9,29.99,NNW,343,4.0,5.0,30,0.00,,,0.00,WeatherCatV1.02B3,2013-04-09 23:36:00,
2013-04-09 16:41:00,62.9,30.2,29.99,NNW,345,6.0,7.0,29,0.00,,,0.00,WeatherCatV1.02B3,2013-04-09 23:41:00,
2013-04-09 16:46:00,62.9,31.0,29.99,North,351,4.0,13.0,30,0.00,,,0.00,WeatherCatV1.02B3,2013-04-09 23:46:00,
2013-04-09 16:51:00,62.9,31.8,29.99,NNW,342,11.0,12.0,31,0.00,,,0.00,WeatherCatV1.02B3,2013-04-09 23:51:00,
2013-04-09 17:16:00,62.7,31.6,29.99,NNW,339,9.0,10.0,31,0.00,,,0.00,WeatherCatV1.02B3,2013-04-10 00:16:00,
2013-04-09 17:23:00,62.5,31.5,29.99,NNE,23,1.0,4.0,31,0.00,,,0.00,WeatherCatV1.15B25,2013-04-10 00:23:00,
2013-04-09 17:28:00,62.5,30.6,29.99,NNW,332,9.0,11.0,30,0.00,,,0.00,WeatherCatV1.15B25,2013-04-10 00:28:00,
2013-04-09 17:33:00,62.5,30.6,29.99,North,356,7.0,10.0,30,0.00,,,0.00,WeatherCatV1.15B25,2013-04-10 00:33:00,
2013-04-09 17:38:00,62.4,30.6,29.99,NNW,344,6.0,8.0,30,0.00,,,0.00,WeatherCatV1.15B25,2013-04-10 00:38:00,
2013-04-09 17:43:00,62.5,30.6,29.99,NNW,337,4.0,11.0,30,0.00,,,0.00,WeatherCatV1.15B25,2013-04-10 00:43:00,
2013-04-09 17:48:00,62.4,30.6,29.99,SSE,167,0.0,10.0,30,0.00,,,0.00,WeatherCatV1.15B25,2013-04-10 00:48:00,
2013-04-09 17:53:00,62.5,31.5,29.99,NE,52,3.0,6.0,31,0.00,,,0.00,WeatherCatV1.15B25,2013-04-10 00:53:00,
2013-04-09 17:58:00,62.5,31.5,29.99,SE,128,0.0,3.0,31,0.00,,,0.00,WeatherCatV1.15B25,2013-04-10 00:58:00,
2013-04-09 18:03:00,62.4,31.4,30.00,NNW,348,4.0,6.0,31,0.00,,,0.00,WeatherCatV1.15B25,2013-04-10 01:03:00,
2013-04-09 18:08:00,62.3,30.5,30.00,NNW,329,7.0,9.0,30,0.00,,,0.00,WeatherCatV1.15B25,2013-04-10 01:08:00,
2013-04-09 18:13:00,62.3,29.6,30.00,NNE,25,2.0,9.0,29,0.00,,,0.00,WeatherCatV1.15B25,2013-04-10 01:13:00,
2013-04-09 18:18:00,62.2,32.0,30.00,NNW,341,0.0,2.0,32,0.00,,,0.00,WeatherCatV1.15B25,2013-04-10 01:18:00,
2013-04-09 18:23:00,62.0,31.0,30.00,NNW,335,2.0,3.0,31,0.00,,,0.00,WeatherCatV1.15B25,2013-04-10 01:23:00,
2013-04-09 18:28:00,61.9,30.1,30.00,NNE,23,0.0,6.0,30,0.00,,,0.00,WeatherCatV1.15B25,2013-04-10 01:28:00,
2013-04-09 18:33:00,61.9,29.3,30.00,North,350,8.0,9.0,29,0.00,,,0.00,WeatherCatV1.15B25,2013-04-10 01:33:00,
2013-04-09 18:38:00,62.0,30.2,30.00,North,4,0.0,4.0,30,0.00,,,0.00,WeatherCatV1.15B25,2013-04-10 01:38:00,
2013-04-09 18:43:00,62.0,30.2,30.00,NNW,342,2.0,7.0,30,0.00,,,0.00,WeatherCatV1.15B25,2013-04-10 01:43:00,
2013-04-09 18:48:00,61.9,29.3,30.00,North,8,2.0,5.0,29,0.00,,,0.00,WeatherCatV1.15B25,2013-04-10 01:48:00,
2013-04-09 18:53:00,61.8,30.8,30.00,NNW,345,1.0,3.0,31,0.00,,,0.00,WeatherCatV1.15B25,2013-04-10 01:53:00,
2013-04-09 18:58:00,61.7,30.0,30.00,SE,129,0.0,3.0,30,0.00,,,0.00,WeatherCatV1.15B25,2013-04-10 01:58:00,
2013-04-09 19:03:00,61.6,29.9,30.00,NNW,334,2.0,3.0,30,0.00,,,0.00,WeatherCatV1.15B25,2013-04-10 02:03:00,
2013-04-09 19:08:00,61.5,29.0,30.00,NNE,22,2.0,9.0,29,0.00,,,0.00,WeatherCatV1.15B25,2013-04-10 02:08:00,
2013-04-09 19:13:00,61.4,29.7,30.00,ENE,69,3.0,7.0,30,0.00,,,0.00,WeatherCatV1.15B25,2013-04-10 02:13:00,
2013-04-09 19:18:00,61.4,29.7,30.00,North,0,3.0,4.0,30,0.00,,,0.00,WeatherCatV1.15B25,2013-04-10 02:18:00,
2013-04-09 19:23:00,61.4,29.7,30.00,NW,310,6.0,6.0,30,0.00,,,0.00,WeatherCatV1.15B25,2013-04-10 02:23:00,
2013-04-09 19:28:00,61.3,30.4,30.00,NNW,332,2.0,8.0,31,0.00,,,0.00,WeatherCatV1.15B25,2013-04-10 02:28:00,
2013-04-09 19:33:00,61.1,31.0,30.00,NNW,339,5.0,5.0,32,0.00,,,0.00,WeatherCatV1.15B25,2013-04-10 02:33:00,
2013-04-09 19:38:00,61.0,30.1,30.00,NW,317,5.0,6.0,31,0.00,,,0.00,WeatherCatV1.15B25,2013-04-10 02:38:00,
2013-04-09 19:43:00,61.0,30.1,30.00,South,181,2.0,15.0,31,0.00,,,0.00,WeatherCatV1.15B25,2013-04-10 02:43:00,
2013-04-09 19:48:00,61.0,30.1,30.00,NW,326,4.0,10.0,31,0.00,,,0.00,WeatherCatV1.15B25,2013-04-10 02:48:00,
2013-04-09 19:53:00,61.0,30.1,30.00,North,349,4.0,10.0,31,0.00,,,0.00,WeatherCatV1.15B25,2013-04-10 02:53:00,
2013-04-09 19:58:00,60.9,30.1,30.00,NNW,345,4.0,7.0,31,0.00,,,0.00,WeatherCatV1.15B25,2013-04-10 02:58:00,
2013-04-09 20:03:00,60.8,30.8,30.01,NNW,330,6.0,8.0,32,0.00,,,0.00,WeatherCatV1.15B25,2013-04-10 03:03:00,
2013-04-09 20:08:00,60.6,30.6,30.01,NNW,340,8.0,11.0,32,0.00,,,0.00,WeatherCatV1.15B25,2013-04-10 03:08:00,
2013-04-09 20:13:00,60.6,30.6,30.01,NNW,333,5.0,13.0,32,0.00,,,0.00,WeatherCatV1.15B25,2013-04-10 03:13:00,
2013-04-09 20:18:00,60.7,30.7,30.00,NNW,330,13.0,13.0,32,0.00,,,0.00,WeatherCatV1.15B25,2013-04-10 03:18:00,
2013-04-09 20:23:00,60.8,30.0,30.00,NE,54,10.0,10.0,31,0.00,,,0.00,WeatherCatV1.15B25,2013-04-10 03:23:00,
2013-04-09 20:28:00,60.9,29.3,30.00,NNW,343,11.0,16.0,30,0.00,,,0.00,WeatherCatV1.15B25,2013-04-10 03:28:00,
2013-04-09 20:33:00,61.1,29.4,30.01,NNW,334,6.0,12.0,30,0.00,,,0.00,WeatherCatV1.15B25,2013-04-10 03:33:00,
2013-04-09 20:38:00,61.2,29.5,30.01,North,4,2.0,11.0,30,0.00,,,0.00,WeatherCatV1.15B25,2013-04-10 03:38:00,
2013-04-09 20:43:00,61.1,28.6,30.01,North,349,3.0,13.0,29,0.00,,,0.00,WeatherCatV1.15B25,2013-04-10 03:43:00,
2013-04-09 20:48:00,61.2,28.7,30.02,NNW,329,3.0,8.0,29,0.00,,,0.00,WeatherCatV1.15B25,2013-04-10 03:48:00,
2013-04-09 20:53:00,61.1,28.6,30.02,NNW,327,5.0,15.0,29,0.00,,,0.00,WeatherCatV1.15B25,2013-04-10 03:53:00,
2013-04-09 20:58:00,61.1,29.4,30.02,NNW,341,3.0,13.0,30,0.00,,,0.00,WeatherCatV1.15B25,2013-04-10 03:58:00,
2013-04-09 21:00:00,61.1,29.4,30.03,North,349,5.0,13.0,30,0.00,,,0.00,WeatherCatV1.15B25,2013-04-10 04:00:00,
2013-04-09 21:01:00,61.1,29.4,30.03,North,358,3.0,8.0,30,0.00,,,0.00,WeatherCatV1.15B25,2013-04-10 04:01:00,
2013-04-09 21:06:00,61.0,29.3,30.03,North,353,4.0,11.0,30,0.00,,,0.00,WeatherCatV1.15B25,2013-04-10 04:06:00,
2013-04-09 21:11:00,61.0,30.1,30.03,NNW,335,7.0,7.0,31,0.00,,,0.00,WeatherCatV1.15B25,2013-04-10 04:11:00,
2013-04-09 21:16:00,60.9,30.1,30.03,NNW,333,7.0,10.0,31,0.00,,,0.00,WeatherCatV1.15B25,2013-04-10 04:16:00,
2013-04-09 21:21:00,60.7,31.4,30.03,NNW,337,3.0,5.0,33,0.00,,,0.00,WeatherCatV1.15B25,2013-04-10 04:21:00,
2013-04-09 21:26:00,60.4,31.2,30.03,NW,321,4.0,6.0,33,0.00,,,0.00,WeatherCatV1.15B25,2013-04-10 04:26:00,
2013-04-09 21:31:00,60.2,31.0,30.03,North,358,0.0,7.0,33,0.00,,,0.00,WeatherCatV1.15B25,2013-04-10 04:31:00,
2013-04-09 21:36:00,60.2,31.0,30.03,NNW,339,5.0,7.0,33,0.00,,,0.00,WeatherCatV1.15B25,2013-04-10 04:36:00,
2013-04-09 21:41:00,60.3,30.3,30.03,NNW,343,2.0,11.0,32,0.00,,,0.00,WeatherCatV1.15B25,2013-04-10 04:41:00,
2013-04-09 21:46:00,60.4,30.4,30.03,NNW,348,7.0,7.0,32,0.00,,,0.00,WeatherCatV1.15B25,2013-04-10 04:46:00,
2013-04-09 21:51:00,60.7,29.9,30.03,NW,326,6.0,6.0,31,0.00,,,0.00,WeatherCatV1.15B25,2013-04-10 04:51:00,
2013-04-09 21:56:00,60.9,29.3,30.03,NNW,331,8.0,14.0,30,0.00,,,0.00,WeatherCatV1.15B25,2013-04-10 04:56:00,
2013-04-09 22:01:00,61.1,29.4,30.04,NNW,339,7.0,7.0,30,0.00,,,0.00,WeatherCatV1.15B25,2013-04-10 05:01:00,
2013-04-09 22:06:00,61.1,28.6,30.04,North,353,3.0,12.0,29,0.00,,,0.00,WeatherCatV1.15B25,2013-04-10 05:06:00,
2013-04-09 22:11:00,61.0,28.5,30.04,NNW,347,2.0,9.0,29,0.00,,,0.00,WeatherCatV1.15B25,2013-04-10 05:11:00,
2013-04-09 22:16:00,61.0,28.5,30.03,NNW,338,3.0,7.0,29,0.00,,,0.00,WeatherCatV1.15B25,2013-04-10 05:16:00,
2013-04-09 22:21:00,61.0,28.5,30.03,NNW,333,6.0,6.0,29,0.00,,,0.00,WeatherCatV1.15B25,2013-04-10 05:21:00,
2013-04-09 22:26:00,61.0,28.5,30.03,NW,325,5.0,11.0,29,0.00,,,0.00,WeatherCatV1.15B25,2013-04-10 05:26:00,
2013-04-09 22:31:00,61.0,28.5,30.03,NNW,329,4.0,9.0,29,0.00,,,0.00,WeatherCatV1.15B25,2013-04-10 05:31:00,
2013-04-09 22:36:00,61.0,28.5,30.03,East,86,2.0,9.0,29,0.00,,,0.00,WeatherCatV1.15B25,2013-04-10 05:36:00,
2013-04-09 22:41:00,61.0,27.7,30.03,NNW,336,3.0,11.0,28,0.00,,,0.00,WeatherCatV1.15B25,2013-04-10 05:41:00,
2013-04-09 22:46:00,61.2,27.8,30.03,NW,314,9.0,12.0,28,0.00,,,0.00,WeatherCatV1.15B25,2013-04-10 05:46:00,
2013-04-09 22:51:00,61.2,27.8,30.03,North,349,6.0,11.0,28,0.00,,,0.00,WeatherCatV1.15B25,2013-04-10 05:51:00,
2013-04-09 22:56:00,61.1,27.8,30.03,NNW,337,3.0,8.0,28,0.00,,,0.00,WeatherCatV1.15B25,2013-04-10 05:56:00,
2013-04-09 23:01:00,61.1,27.8,30.02,NNW,343,1.0,12.0,28,0.00,,,0.00,WeatherCatV1.15B25,2013-04-10 06:01:00,
2013-04-09 23:06:00,61.2,28.7,30.02,NNW,347,5.0,10.0,29,0.00,,,0.00,WeatherCatV1.15B25,2013-04-10 06:06:00,
2013-04-09 23:11:00,61.3,27.9,30.02,West,281,6.0,7.0,28,0.00,,,0.00,WeatherCatV1.15B25,2013-04-10 06:11:00,
2013-04-09 23:16:00,61.6,27.3,30.02,North,351,4.0,11.0,27,0.00,,,0.00,WeatherCatV1.15B25,2013-04-10 06:16:00,
2013-04-09 23:21:00,62.0,27.6,30.02,NNW,341,3.0,15.0,27,0.00,,,0.00,WeatherCatV1.15B25,2013-04-10 06:21:00,
2013-04-09 23:26:00,61.9,27.6,30.02,NNW,348,6.0,12.0,27,0.00,,,0.00,WeatherCatV1.15B25,2013-04-10 06:26:00,
2013-04-09 23:31:00,61.8,27.5,30.02,North,351,3.0,9.0,27,0.00,,,0.00,WeatherCatV1.15B25,2013-04-10 06:31:00,
2013-04-09 23:36:00,62.0,27.6,30.02,North,4,8.0,12.0,27,0.00,,,0.00,WeatherCatV1.15B25,2013-04-10 06:36:00,
2013-04-09 23:41:00,62.2,27.8,30.02,NNW,339,6.0,14.0,27,0.00,,,0.00,WeatherCatV1.15B25,2013-04-10 06:41:00,
2013-04-09 23:46:00,62.1,27.7,30.02,WNW,293,11.0,11.0,27,0.00,,,0.00,WeatherCatV1.15B25,2013-04-10 06:46:00,
2013-04-09 23:51:00,62.1,27.7,30.02,ESE,119,5.0,9.0,27,0.00,,,0.00,WeatherCatV1.15B25,2013-04-10 06:51:00,
2013-04-09 23:56:00,62.2,28.7,30.02,North,4,10.0,11.0,28,0.00,,,0.00,WeatherCatV1.15B25,2013-04-10 06:56:00,